Temperature
22 21 20 20 20 20 22 24 25 25 25 25 25 24 23 23 22 20 21 21 21 21 21 20 21 20 20 20 20 20 20 20 20 20 20 20 20 20 19 19 19 19 19 19 19 19 19 19 19
22 21 20 20 20 21 23 25 25 25 25 25 25 24 23 22 21 21 20 21 21 21 21 21 21 20 20 20 20 20 20 20 20 20 20 20 19 19 19 19 19 19 19 19 19 19 19 18 18
22 21 20 20 21 22 24 25 26 26 26 26 25 24 23 22 21 21 21 21 21 21 21 21 21 20 20 20 20 20 20 20 20 20 20 19 19 19 19 19 19 19 19 19 19 19 18 18 18
22 21 21 21 22 24 24 25 26 26 26 25 24 23 23 22 22 22 21 21 21 21 21 21 21 20 20 20 20 20 20 20 20 20 20 19 19 19 19 19 19 19 19 19 19 19 19 18 18
22 21 21 22 23 25 26 26 26 26 25 25 24 23 22 22 22 22 21 21 22 21 21 21 21 20 20 20 20 20 20 20 20 20 20 19 19 19 19 19 19 19 19 19 19 19 19 18 18
22 21 22 22 25 26 27 27 26 26 25 24 24 22 22 22 22 22 22 22 22 21 21 21 21 20 20 20 20 20 20 20 20 20 19 19 19 19 19 19 19 19 19 19 19 19 19 19 18
22 21 22 24 25 26 27 27 26 25 25 25 24 22 22 22 22 22 22 21 21 21 21 21 20 20 20 20 20 20 20 20 20 20 19 19 19 19 19 19 19 19 19 19 19 19 19 19 18
24 22 23 24 25 26 27 28 27 26 25 25 24 22 22 22 22 22 22 21 21 21 21 21 21 20 20 20 20 20 20 20 20 20 19 19 19 19 19 19 19 19 19 19 19 19 19 19 18
25 22 23 24 26 26 28 27 27 27 26 25 25 24 23 22 22 22 21 21 21 21 21 21 21 20 20 20 20 20 20 20 20 19 19 19 19 19 19 19 19 19 19 19 19 19 19 18 18
24 23 25 26 27 27 28 28 27 26 25 24 24 24 23 22 22 22 21 21 21 21 21 21 21 21 20 20 20 20 20 20 20 19 19 19 19 19 19 19 19 19 19 19 19 19 19 18 18
25 25 27 28 29 29 28 28 28 26 24 24 24 23 23 22 22 22 22 22 22 21 21 21 21 21 21 20 20 20 20 20 20 19 19 19 19 19 19 19 19 19 19 19 19 19 19 18 18
26 27 28 28 29 29 28 28 27 26 25 25 25 24 23 23 22 22 22 22 22 21 21 21 21 21 21 20 20 20 20 20 20 20 19 19 19 19 19 19 19 19 19 19 19 19 18 18 18
27 28 29 29 29 29 29 27 27 26 26 25 25 24 24 23 23 23 22 22 22 22 21 21 21 21 21 20 20 20 20 20 20 20 19 19 19 19 19 19 19 19 19 19 19 18 18 18 18
27 28 28 29 29 29 28 27 27 26 26 25 24 24 24 23 23 23 22 22 22 22 21 21 21 21 21 20 20 20 20 20 20 20 19 19 19 19 19 19 19 19 19 18 18 18 18 18 18
28 27 28 28 28 28 28 26 26 26 26 25 24 24 24 23 23 23 23 22 22 22 22 21 21 21 21 21 20 20 20 20 20 20 19 19 19 19 19 19 19 19 18 18 18 18 18 18 18
27 26 26 27 28 28 26 25 26 26 26 25 25 24 24 24 23 23 23 23 22 22 22 21 21 21 21 20 20 20 20 20 20 20 20 19 19 19 19 19 19 19 18 18 18 18 18 18 18
25 25 26 27 28 28 26 25 26 26 26 25 25 25 24 24 23 23 23 23 23 22 22 21 21 21 21 21 20 20 20 20 20 20 20 19 19 19 19 19 19 19 18 18 18 18 18 18 18
24 25 26 26 27 27 26 25 26 26 26 25 25 25 24 24 24 23 23 23 23 22 22 22 21 21 21 20 20 20 20 20 20 20 20 20 20 19 19 19 19 19 18 18 18 18 18 18 18
26 26 26 26 27 27 26 25 26 26 25 25 25 25 24 24 24 24 23 23 23 22 22 22 21 21 21 20 20 20 20 20 20 20 20 19 19 19 19 19 19 19 18 18 18 18 18 18 18
26 26 25 26 27 27 25 25 26 26 25 25 25 25 24 24 23 23 23 23 23 22 22 22 21 21 21 21 20 20 20 20 20 20 19 19 19 19 19 19 19 19 18 18 18 18 18 18 18
26 26 26 26 27 27 26 25 25 25 26 25 25 25 25 24 23 23 23 23 23 22 22 22 21 21 21 20 20 20 20 20 20 20 19 19 19 19 19 19 19 19 18 18 18 18 18 18 18
26 27 27 27 25 24 25 24 24 24 24 24 24 24 24 24 24 23 23 23 22 22 22 22 21 21 21 20 20 20 20 20 20 20 19 19 19 19 19 19 19 19 18 18 18 18 18 18 18
27 28 27 27 25 23 24 23 23 23 23 23 23 24 24 24 24 23 23 23 22 22 22 22 21 21 21 20 20 20 20 20 19 19 19 19 19 19 19 19 19 18 18 18 18 18 18 18 18
28 26 25 23 22 23 23 23 23 23 23 23 23 24 24 24 24 24 23 23 23 22 22 22 21 21 21 20 20 20 20 20 19 19 19 19 19 19 19 18 18 18 18 18 18 18 18 18 18
26 24 23 23 22 22 23 23 22 23 24 24 24 24 24 24 24 23 23 23 23 22 22 22 21 21 21 20 20 20 20 19 19 19 19 19 19 19 18 18 18 18 18 18 18 18 18 18 18
26 24 23 23 22 22 23 23 23 24 24 25 24 24 24 23 23 23 23 23 23 22 22 22 21 21 21 20 20 20 20 19 19 19 19 19 19 19 18 18 18 18 18 18 18 18 17 17 17
27 25 23 22 22 22 22 23 23 24 24 24 24 24 23 23 23 23 23 22 22 22 22 21 21 21 21 20 20 20 20 19 19 19 19 19 19 18 18 18 18 18 18 18 17 17 17 17 17
27 25 22 22 22 22 23 23 22 23 22 22 23 23 23 23 22 22 22 22 22 22 22 21 21 21 21 20 20 20 19 19 19 19 19 19 19 18 18 18 18 18 17 17 17 17 17 17 17
27 25 22 20 21 21 22 22 24 23 22 22 22 22 22 22 22 22 22 22 22 22 21 21 21 21 20 20 20 20 19 19 19 19 19 19 18 18 18 18 18 17 17 17 17 17 17 17 17
26 25 22 22 22 20 21 22 24 23 23 22 22 22 23 23 23 22 22 22 22 22 21 21 21 21 20 20 20 19 19 19 19 19 19 18 18 18 18 18 17 17 17 17 17 16 17 17 16
Wind_Speed
10 8 4 1 1 2 1 1 3 4 5 6 9 10 9 7 5 6 4 10 11 10 11 15 16 16 16 16 16 16 16 15 15 15 14 14 13 15 16 15 14 14 14 13 12 11 12 11 11
7 5 2 0 2 3 1 2 5 6 8 9 10 11 9 7 6 9 6 10 13 12 12 15 17 17 16 16 15 15 15 15 15 15 14 13 13 15 15 14 14 13 13 12 11 10 11 10 10
5 3 0 1 1 3 2 2 5 7 8 7 6 6 6 6 6 7 8 14 12 11 12 16 18 17 16 16 15 15 15 14 14 14 13 13 13 13 13 13 13 12 12 11 10 9 10 9 9
2 1 1 1 1 3 4 3 5 7 7 7 8 7 4 4 5 9 14 14 13 11 13 16 18 18 16 15 15 14 14 13 13 13 13 13 12 12 12 12 12 11 11 10 9 9 8 8 8
1 1 2 1 1 1 4 4 6 7 5 8 10 8 5 4 11 14 14 13 12 10 11 16 18 18 16 15 14 14 13 12 12 12 12 12 11 11 11 11 11 10 9 9 8 8 7 7 6
1 1 2 1 2 2 3 6 7 10 11 11 10 8 3 6 11 12 12 11 11 12 11 14 17 17 16 15 14 13 12 12 11 11 10 10 10 10 10 10 9 8 8 8 8 7 6 6 5
2 1 1 3 2 3 4 5 9 10 9 7 8 7 4 6 9 12 12 11 11 12 10 10 13 14 15 15 14 13 12 11 11 10 10 9 10 9 9 8 8 7 7 7 7 7 6 6 5
4 2 1 1 4 4 5 5 8 10 8 10 7 7 7 9 11 12 11 10 11 11 9 8 9 10 10 12 13 13 12 10 10 10 9 9 8 8 7 6 6 6 6 7 6 6 6 6 5
3 2 2 3 4 4 5 8 5 7 10 6 5 7 11 15 14 13 11 9 10 10 8 7 7 8 9 10 11 11 11 10 9 8 8 7 5 5 5 5 5 6 6 6 6 6 5 5 5
4 3 6 5 5 5 5 8 8 8 11 8 10 10 14 15 15 14 13 12 11 10 9 8 7 7 7 8 8 7 7 7 7 6 5 5 4 4 4 4 4 4 4 5 5 5 4 3 3
5 5 4 3 5 6 6 5 6 11 8 11 15 14 14 14 13 13 13 12 12 11 10 8 8 6 6 5 6 5 5 5 5 5 5 5 3 3 2 2 2 2 2 2 3 3 3 3 2
2 4 3 3 3 5 6 5 6 8 9 14 17 16 13 13 13 12 12 12 11 10 10 9 8 7 5 5 5 5 4 4 3 4 5 4 2 2 2 2 2 2 2 2 2 2 2 2 3
2 2 2 3 3 5 8 8 7 8 12 14 16 15 13 12 11 9 10 11 11 10 9 9 8 7 6 5 4 5 4 4 4 4 5 5 3 2 2 2 2 2 2 2 2 1 2 1 2
4 2 1 2 3 5 9 7 7 9 13 14 15 13 12 12 11 9 10 10 10 10 9 8 8 7 6 5 5 4 5 5 4 4 5 6 5 3 3 2 2 1 2 2 2 2 2 1 1
2 2 3 1 4 5 9 5 5 10 12 13 13 13 12 12 11 11 11 10 11 11 10 9 9 7 7 6 5 5 5 5 3 3 5 5 5 4 3 2 2 1 2 2 2 1 1 1 1
4 3 2 2 4 4 7 4 4 8 11 11 11 12 12 11 12 11 10 10 10 11 10 9 9 7 6 5 4 4 4 4 3 4 4 5 5 5 3 2 1 2 2 2 2 2 1 1 1
4 1 3 3 3 5 6 5 5 7 10 9 9 11 12 11 10 10 11 11 12 12 11 9 8 8 7 6 4 4 4 3 3 4 3 3 5 6 4 2 1 2 2 1 2 2 2 2 1
3 3 3 4 2 4 5 5 6 8 9 9 9 10 12 13 12 11 11 11 11 11 10 9 9 8 6 5 4 3 3 2 2 2 2 3 4 5 4 2 2 2 1 1 1 2 2 2 1
5 4 5 6 5 2 5 6 8 7 8 8 9 10 11 11 11 12 11 11 11 10 9 8 8 7 6 4 4 4 3 2 2 2 3 3 4 4 3 2 2 2 2 1 2 2 2 1 1
4 5 5 6 5 2 3 4 7 9 10 11 11 10 11 9 9 11 11 11 11 11 10 9 8 7 6 5 4 3 3 2 2 1 1 3 3 3 4 3 2 2 2 2 2 2 2 1 1
5 6 6 5 3 2 2 2 3 4 5 7 8 10 11 14 14 13 11 11 11 12 11 10 8 7 6 6 4 3 3 2 1 1 1 1 3 4 3 3 2 2 2 2 2 3 3 2 0
6 7 5 3 1 2 2 2 4 4 4 6 7 8 10 12 13 12 12 11 11 11 11 10 9 7 6 6 6 6 4 3 3 2 2 1 2 3 3 3 3 3 3 2 2 2 2 3 1
7 6 3 2 2 1 1 2 5 3 5 7 8 8 9 11 14 14 13 12 10 10 10 9 9 7 6 6 6 6 4 3 2 2 2 1 1 1 3 3 3 2 2 2 2 2 3 3 2
4 1 4 4 5 2 3 3 5 5 9 10 9 10 10 11 12 12 11 11 9 8 9 9 9 7 6 6 6 6 6 5 4 3 3 2 1 1 2 3 2 2 2 2 2 3 3 2 2
2 4 4 5 4 4 4 2 6 6 6 10 11 10 10 11 11 11 12 11 11 10 9 9 10 8 7 6 5 5 6 5 5 5 4 3 2 1 2 2 2 2 2 2 2 2 2 2 2
3 8 7 4 4 4 3 3 5 4 4 6 9 10 8 8 9 11 11 11 11 11 10 9 10 8 8 7 6 5 5 4 4 4 4 4 3 3 3 2 2 2 2 2 2 2 2 1 2
2 3 7 7 2 1 4 3 3 1 4 5 6 7 8 9 10 10 10 9 9 10 10 11 10 8 8 7 6 5 5 5 4 4 4 3 3 3 3 3 3 2 2 2 2 1 1 1 1
6 5 5 5 3 2 4 3 4 3 4 5 7 8 8 9 10 9 9 9 8 9 9 9 9 8 7 7 7 6 5 5 5 4 4 4 3 3 3 2 3 2 2 2 2 1 1 1 1
1 2 4 4 5 6 3 6 5 8 7 7 6 7 9 10 11 11 10 10 10 8 8 8 8 7 7 7 6 6 6 5 4 4 4 4 3 3 3 3 3 3 2 2 2 1 1 1 0
6 6 7 5 3 5 4 6 3 6 7 7 6 5 6 8 9 10 11 11 10 9 8 8 8 8 8 7 6 6 5 5 5 5 4 4 4 3 3 3 3 3 3 2 2 2 1 2 1
Wind_Direction
173 165 166 192 6 42 70 122 114 72 61 69 81 86 87 74 102 131 152 142 140 144 146 137 133 130 128 126 124 122 120 118 118 118 119 122 124 130 137 136 136 138 139 138 139 141 143 142 141
168 169 181 348 70 60 28 111 90 91 122 109 83 84 78 74 90 116 129 144 143 143 143 138 136 134 132 130 127 124 122 121 120 120 120 121 122 127 132 135 137 138 140 141 143 144 146 145 144
177 181 172 48 99 151 179 130 104 96 105 97 84 67 75 104 114 132 148 148 142 140 142 142 139 137 134 132 130 128 126 124 122 123 124 125 125 127 132 136 138 140 143 146 148 149 152 150 151
152 149 17 47 145 189 168 171 115 100 85 81 96 72 63 97 128 136 143 147 143 144 146 147 144 141 138 135 133 131 129 127 125 125 127 127 128 131 135 138 142 145 148 150 152 153 154 155 160
129 95 42 34 149 150 151 145 119 108 100 92 94 95 80 73 111 129 141 144 144 148 147 147 146 145 143 140 137 134 133 131 127 128 128 130 132 133 135 140 142 146 149 154 157 158 160 165 170
113 88 74 109 118 122 131 128 108 101 109 106 102 106 103 119 124 135 138 138 140 146 147 148 149 148 147 146 144 140 137 135 132 131 130 134 138 138 141 144 148 150 152 158 161 164 165 169 177
147 121 205 163 125 111 137 125 123 123 125 128 126 109 122 130 135 133 131 130 131 135 138 145 149 149 151 152 150 147 142 140 138 138 134 135 139 141 144 149 153 158 163 166 171 173 173 177 185
172 122 294 177 137 149 150 119 131 129 127 132 125 127 148 155 139 125 121 122 125 130 137 141 146 149 154 156 155 153 149 146 143 142 142 142 144 148 150 154 159 165 170 177 183 188 187 187 194
159 104 223 201 158 167 139 107 110 107 115 117 111 128 144 143 135 125 120 120 127 134 139 142 145 151 153 152 158 157 153 149 146 144 145 147 150 151 158 165 171 177 182 190 195 198 200 204 208
155 182 217 204 180 163 141 130 132 109 104 103 103 117 135 139 140 140 143 143 144 146 150 148 148 149 151 156 152 156 152 148 144 146 148 143 146 159 164 176 180 187 189 192 198 204 209 214 219
181 199 216 213 193 149 136 128 114 120 119 139 142 145 145 141 143 146 151 153 155 155 151 150 151 144 143 143 142 147 147 146 148 149 152 150 149 162 158 158 181 196 179 188 203 209 217 201 203
212 232 211 195 155 139 139 122 109 126 152 155 153 152 150 146 150 153 152 154 153 149 150 151 150 142 142 138 142 145 144 147 154 160 158 153 142 145 145 140 154 159 162 154 176 186 197 192 196
245 258 198 160 143 140 121 117 116 128 139 146 149 148 151 151 154 154 151 151 149 148 148 153 149 146 145 136 149 146 149 151 163 164 164 157 146 150 147 154 160 165 164 150 157 175 169 168 162
241 247 44 97 117 121 117 113 108 143 139 141 146 150 156 155 154 146 146 150 152 150 149 149 147 151 142 145 147 147 151 152 157 165 170 163 159 159 154 151 145 167 176 171 167 173 165 170 160
299 348 355 117 129 133 110 88 132 153 143 144 154 157 158 158 156 158 162 157 155 151 148 146 150 149 147 148 150 147 150 153 156 164 165 160 159 164 159 137 135 175 179 173 162 141 129 137 150
7 33 4 267 160 156 113 156 188 154 145 152 162 163 163 167 166 164 160 157 153 149 147 151 152 150 153 149 144 136 141 148 154 160 157 154 157 159 148 138 155 173 160 158 151 139 129 125 150
4 326 269 277 194 146 125 174 204 160 152 160 168 165 164 165 164 164 160 157 156 155 153 154 149 152 152 146 140 138 137 142 151 148 150 159 160 159 148 155 174 150 139 146 157 141 143 145 159
261 290 293 275 254 142 145 187 188 164 156 167 169 162 162 164 166 162 155 153 153 154 155 153 149 154 147 137 129 120 114 126 134 139 147 154 155 151 145 143 151 134 121 112 137 150 149 159 177
218 253 266 270 257 176 180 188 190 172 161 169 175 170 166 167 163 154 150 150 150 150 150 152 152 160 151 145 149 148 154 155 157 155 146 146 146 143 137 137 136 133 136 154 157 146 131 123 109
240 253 260 280 270 192 189 197 186 179 175 176 177 178 169 159 157 159 156 155 158 159 158 155 159 164 165 166 162 157 152 153 164 151 128 147 146 146 142 136 140 143 141 121 124 132 128 146 107
262 229 235 241 290 21 96 324 221 192 175 171 176 176 170 169 166 166 164 162 162 165 165 164 163 161 165 158 139 131 103 81 82 102 154 176 153 147 143 146 146 148 149 151 151 148 147 162 195
255 243 223 201 130 275 150 217 270 210 196 190 183 177 174 172 164 165 165 165 171 173 167 161 161 160 158 153 150 153 155 165 190 174 173 172 147 150 143 139 146 148 135 143 161 152 148 149 170
227 237 229 184 141 25 354 150 265 183 192 204 189 182 184 172 166 169 169 170 171 171 168 165 159 161 160 157 159 157 159 167 159 137 146 165 172 146 134 136 136 146 139 140 127 117 126 135 148
202 355 24 49 73 10 265 169 265 218 194 187 180 180 181 176 171 167 165 160 162 166 167 162 160 166 167 161 159 157 156 155 147 154 162 177 181 166 132 126 128 141 136 127 137 123 128 148 145
102 90 25 356 9 265 267 161 245 244 186 175 173 177 183 177 170 162 162 165 166 169 174 169 165 168 168 162 165 164 158 159 166 174 173 169 170 168 186 152 147 153 156 145 145 136 139 154 154
209 142 158 198 224 279 316 230 255 239 178 160 163 169 170 170 166 167 170 171 172 168 172 171 169 170 171 168 171 168 163 165 174 175 171 176 183 188 182 164 159 159 157 147 138 141 159 143 166
181 190 165 143 148 312 283 274 306 107 126 149 153 149 166 175 172 170 171 170 170 170 176 175 168 170 175 176 172 172 175 175 174 173 172 177 176 173 159 158 152 147 144 136 137 137 183 168 166
167 162 96 115 149 246 283 264 228 199 173 160 160 159 165 172 168 165 165 165 169 171 169 166 165 172 174 176 180 187 190 185 177 172 175 170 168 170 160 159 157 154 148 139 137 151 200 153 203
189 125 119 126 153 158 226 266 221 187 179 162 166 170 168 172 170 164 164 166 169 167 164 166 168 170 177 182 183 187 190 183 171 173 178 176 178 176 170 170 163 167 171 164 153 168 156 139 114
183 180 149 153 212 164 168 260 271 176 169 150 150 160 162 165 167 165 166 170 173 170 169 171 172 176 182 184 179 181 180 175 172 177 184 181 182 187 178 167 165 179 182 173 171 190 174 166 174
Height
1503 1503 1503 1504 1505 1509 1509 1499 1490 1488 1488 1487 1486 1487 1490 1494 1498 1506 1503 1502 1504 1504 1505 1505 1506 1507 1508 1509 1510 1511 1511 1512 1513 1514 1514 1514 1512 1510 1514 1519 1521 1522 1524 1525 1527 1528 1529 1531 1532
1503 1503 1505 1505 1509 1518 1510 1495 1491 1488 1489 1488 1489 1490 1491 1496 1497 1500 1500 1502 1504 1504 1505 1506 1507 1508 1509 1511 1512 1512 1513 1514 1514 1515 1515 1515 1514 1514 1517 1520 1522 1523 1524 1526 1527 1529 1530 1531 1532
1504 1504 1506 1506 1510 1514 1506 1492 1490 1489 1488 1488 1491 1492 1495 1498 1499 1500 1501 1502 1504 1505 1506 1507 1508 1510 1511 1512 1513 1514 1515 1515 1516 1516 1517 1517 1517 1518 1519 1521 1522 1524 1525 1526 1528 1529 1530 1531 1532
1505 1506 1506 1509 1510 1500 1495 1490 1488 1490 1490 1490 1491 1496 1498 1500 1500 1500 1501 1502 1503 1504 1505 1507 1509 1511 1512 1514 1515 1516 1516 1517 1518 1518 1519 1519 1519 1520 1521 1522 1523 1524 1525 1527 1528 1529 1530 1531 1532
1505 1506 1509 1511 1504 1494 1490 1488 1488 1489 1491 1493 1492 1498 1501 1503 1501 1501 1502 1502 1501 1502 1505 1508 1510 1512 1514 1515 1516 1517 1518 1519 1519 1520 1520 1520 1521 1521 1522 1523 1524 1525 1526 1527 1528 1529 1530 1532 1533
1505 1506 1514 1515 1503 1493 1489 1489 1489 1491 1493 1495 1496 1499 1503 1504 1503 1503 1503 1501 1500 1500 1504 1509 1511 1513 1515 1516 1518 1519 1519 1520 1521 1521 1521 1522 1522 1523 1523 1524 1525 1526 1527 1527 1529 1530 1531 1532 1533
1506 1507 1511 1507 1502 1496 1490 1489 1489 1491 1493 1495 1496 1499 1504 1506 1505 1504 1504 1503 1502 1503 1506 1510 1513 1515 1517 1518 1519 1520 1520 1521 1522 1522 1523 1523 1523 1524 1525 1525 1526 1526 1527 1528 1529 1530 1531 1532 1533
1503 1506 1508 1505 1501 1496 1488 1489 1490 1491 1494 1496 1497 1499 1503 1506 1506 1506 1506 1506 1506 1508 1510 1512 1514 1516 1518 1519 1520 1521 1522 1522 1523 1524 1524 1524 1525 1525 1526 1526 1526 1526 1527 1527 1528 1529 1530 1531 1533
1501 1507 1510 1502 1497 1493 1488 1489 1492 1492 1494 1496 1497 1499 1502 1505 1506 1507 1509 1509 1510 1511 1513 1514 1516 1517 1519 1520 1521 1522 1523 1524 1524 1525 1525 1526 1526 1526 1526 1526 1526 1526 1526 1526 1527 1529 1530 1531 1533
1499 1506 1500 1490 1488 1487 1487 1488 1491 1494 1496 1498 1499 1502 1504 1505 1506 1507 1509 1510 1511 1513 1515 1516 1518 1518 1520 1521 1522 1523 1524 1525 1525 1526 1526 1526 1526 1527 1527 1527 1526 1526 1525 1525 1526 1528 1530 1531 1532
1494 1495 1489 1486 1485 1485 1487 1489 1490 1493 1498 1498 1498 1501 1504 1505 1507 1508 1509 1510 1512 1513 1515 1517 1518 1520 1521 1522 1523 1524 1525 1526 1526 1527 1527 1527 1527 1527 1527 1527 1527 1526 1525 1525 1526 1528 1530 1531 1532
1492 1488 1486 1485 1484 1485 1486 1489 1491 1492 1496 1497 1498 1500 1503 1505 1507 1508 1509 1511 1513 1515 1516 1517 1519 1521 1522 1523 1524 1525 1526 1526 1527 1528 1528 1528 1527 1527 1528 1528 1528 1527 1527 1527 1528 1529 1530 1531 1532
1490 1487 1485 1484 1484 1485 1486 1488 1491 1494 1496 1498 1500 1502 1503 1505 1507 1509 1511 1512 1513 1515 1517 1518 1520 1521 1522 1523 1524 1525 1526 1527 1527 1528 1528 1528 1528 1528 1528 1528 1528 1528 1528 1528 1529 1530 1530 1531 1532
1488 1485 1484 1484 1484 1486 1487 1489 1491 1495 1496 1498 1501 1502 1504 1506 1507 1509 1511 1512 1514 1515 1517 1519 1520 1521 1522 1523 1524 1526 1527 1527 1528 1528 1529 1529 1529 1529 1528 1528 1529 1529 1529 1529 1530 1530 1531 1531 1532
1486 1486 1486 1484 1484 1486 1487 1494 1493 1495 1496 1498 1501 1502 1504 1506 1507 1509 1510 1512 1513 1515 1517 1519 1520 1521 1523 1524 1525 1526 1527 1528 1528 1528 1529 1529 1529 1529 1529 1529 1529 1529 1530 1530 1530 1530 1531 1531 1532
1488 1492 1497 1488 1484 1486 1491 1504 1494 1495 1496 1498 1500 1502 1504 1506 1507 1508 1510 1512 1513 1515 1517 1519 1520 1521 1523 1524 1525 1526 1527 1528 1528 1529 1529 1529 1529 1530 1530 1529 1529 1529 1530 1530 1530 1530 1531 1531 1532
1499 1505 1501 1492 1484 1484 1490 1500 1492 1494 1495 1497 1499 1500 1502 1504 1506 1508 1509 1511 1512 1514 1516 1518 1520 1521 1523 1524 1525 1526 1527 1528 1528 1529 1529 1529 1529 1530 1530 1529 1529 1529 1529 1530 1530 1530 1530 1531 1531
1509 1506 1501 1497 1486 1485 1490 1493 1490 1491 1493 1495 1497 1499 1500 1502 1504 1506 1509 1510 1512 1514 1516 1518 1520 1521 1522 1524 1525 1526 1527 1527 1528 1528 1529 1529 1529 1529 1529 1529 1529 1529 1529 1529 1529 1529 1530 1530 1531
1496 1499 1500 1493 1484 1487 1490 1491 1489 1489 1491 1493 1495 1497 1498 1500 1503 1505 1507 1510 1512 1514 1515 1517 1519 1520 1522 1523 1524 1525 1526 1527 1528 1528 1529 1529 1529 1529 1529 1528 1528 1528 1528 1528 1528 1529 1529 1529 1530
1492 1499 1499 1492 1482 1486 1490 1491 1487 1487 1488 1490 1492 1495 1497 1500 1502 1504 1506 1508 1510 1512 1514 1516 1518 1520 1521 1522 1523 1524 1525 1526 1527 1528 1528 1528 1529 1529 1528 1528 1528 1527 1527 1527 1527 1528 1528 1529 1529
1492 1495 1495 1494 1487 1485 1491 1497 1491 1488 1487 1489 1490 1492 1495 1497 1499 1502 1504 1506 1508 1510 1513 1515 1517 1519 1520 1522 1523 1524 1525 1526 1527 1527 1527 1528 1528 1528 1528 1527 1527 1527 1527 1526 1527 1527 1527 1528 1528
1495 1482 1483 1487 1496 1503 1497 1514 1498 1490 1489 1488 1489 1491 1493 1495 1498 1500 1503 1505 1507 1509 1511 1514 1516 1518 1519 1521 1522 1523 1523 1524 1525 1526 1526 1527 1527 1527 1526 1526 1526 1526 1526 1526 1526 1526 1526 1527 1527
1483 1476 1480 1484 1494 1504 1501 1511 1505 1492 1493 1490 1489 1490 1491 1493 1495 1498 1500 1503 1506 1509 1511 1513 1515 1517 1518 1520 1521 1522 1522 1523 1524 1525 1525 1526 1526 1526 1526 1525 1525 1525 1525 1525 1525 1525 1525 1525 1525
1473 1479 1484 1490 1502 1518 1507 1511 1509 1494 1488 1487 1487 1488 1489 1491 1493 1496 1499 1502 1505 1508 1510 1512 1514 1515 1517 1519 1520 1521 1521 1522 1523 1523 1524 1524 1525 1525 1525 1525 1524 1524 1524 1524 1524 1524 1524 1525 1525
1475 1495 1515 1519 1526 1523 1503 1507 1505 1484 1479 1480 1482 1484 1486 1489 1492 1494 1497 1500 1502 1505 1508 1510 1512 1514 1516 1518 1519 1520 1521 1521 1522 1522 1523 1523 1523 1523 1524 1524 1524 1524 1524 1524 1524 1523 1523 1524 1523
1477 1489 1516 1528 1530 1521 1505 1507 1494 1477 1476 1477 1478 1480 1484 1488 1490 1493 1495 1497 1500 1502 1505 1508 1510 1512 1514 1516 1518 1519 1519 1520 1521 1521 1522 1522 1522 1522 1523 1523 1523 1523 1523 1523 1523 1523 1523 1523 1522
1476 1484 1486 1507 1514 1522 1514 1501 1488 1477 1477 1477 1479 1481 1484 1487 1489 1492 1494 1497 1498 1501 1504 1506 1508 1510 1512 1514 1516 1517 1518 1519 1519 1520 1520 1520 1521 1521 1521 1522 1521 1521 1521 1522 1522 1522 1521 1521 1521
1466 1474 1491 1507 1522 1528 1517 1506 1500 1485 1481 1479 1479 1480 1483 1485 1488 1491 1494 1496 1498 1500 1502 1504 1507 1508 1510 1512 1513 1515 1516 1517 1517 1518 1518 1518 1519 1519 1519 1520 1520 1520 1520 1520 1520 1520 1520 1520 1519
1470 1476 1487 1501 1506 1522 1526 1511 1479 1478 1477 1479 1480 1480 1481 1484 1486 1488 1492 1494 1496 1499 1501 1503 1505 1507 1509 1510 1511 1512 1513 1515 1516 1516 1516 1517 1517 1517 1518 1518 1518 1518 1519 1519 1519 1518 1518 1518 1518
1462 1470 1482 1501 1506 1508 1516 1508 1472 1473 1474 1475 1479 1481 1481 1482 1485 1487 1490 1494 1496 1498 1500 1502 1503 1505 1507 1508 1509 1510 1512 1513 1514 1514 1514 1515 1515 1515 1516 1516 1516 1516 1517 1517 1517 1516 1516 1516 1516